Location: Christchurch
(43.5330°S, 172.6330°E)
Time: 02:01:40
(UTC+13:00)

ARGOS - Pass Details

Date: 24 January 2019
Orbit: 821 x 834 km, 98.5° (Epoch: 13 October)

Event Time Altitude Azimuth Distance (km) Brightness Sun altitude
Rises 23:08:58 0° 169° (S) 3,396 7.0 -18.2°
Reaches altitude 10° 23:11:21 10° 170° (S) 2,455 6.2 -18.4°
Maximum altitude 23:16:46 73° 254° (WSW) 870 3.3 -19.0°
Enters shadow 23:21:30 14° 336° (NNW) 2,183 5.1 -19.5°
